• In Czech Republic
  • List of Countries
  • For 7 days
  • Water Temperature
  • Satellite Maps
  • Weather Map
  • Weather Widgets
  • user-avatar
    Login

    Hourly Weather North-Horr

    Today, 16 December, Saturday

    Time Temperature Precipitation Wind Pressure Humidity
    00:00 +34°C° 0 mm 4 mps 724 mmHg 38%
    01:00 +34°C° 0 mm 4 mps 724 mmHg 38%
    02:00 +33°C° 0 mm 4 mps 724 mmHg 39%
    03:00 +33°C° 0 mm 4 mps 724 mmHg 38%
    04:00 +32°C° 0 mm 5 mps 724 mmHg 37%
    05:00 +32°C° 0 mm 5 mps 724 mmHg 36%
    06:00 +33°C° 0 mm 7 mps 725 mmHg 35%
    07:00 +33°C° 0 mm 8 mps 725 mmHg 34%
    08:00 +34°C° 0 mm 10 mps 726 mmHg 34%
    09:00 +36°C° 0 mm 10 mps 726 mmHg 31%
    10:00 +37°C° 0 mm 9 mps 726 mmHg 29%
    11:00 +38°C° 0 mm 9 mps 725 mmHg 27%
    12:00 +39°C° 0 mm 8 mps 725 mmHg 26%
    13:00 +39°C° 0 mm 8 mps 724 mmHg 24%
    14:00 +40°C° 0 mm 7 mps 723 mmHg 23%
    15:00 +40°C° 0 mm 7 mps 723 mmHg 24%
    16:00 +39°C° 0 mm 7 mps 723 mmHg 24%
    17:00 +39°C° 0 mm 7 mps 722 mmHg 25%
    18:00 +38°C° 0 mm 7 mps 723 mmHg 26%
    19:00 +38°C° 0 mm 7 mps 724 mmHg 28%
    20:00 +36°C° 0 mm 7 mps 724 mmHg 30%
    21:00 +35°C° 0 mm 7 mps 724 mmHg 32%
    22:00 +35°C° 0 mm 7 mps 724 mmHg 34%
    23:00 +34°C° 0 mm 7 mps 725 mmHg 36%

    Tomorrow, 17 December, Sunday

    Time Temperature Precipitation Wind Pressure Humidity
    00:00 +33°C° 0 mm 6 mps 724 mmHg 38%
    01:00 +33°C° 0 mm 6 mps 724 mmHg 39%
    02:00 +32°C° 0 mm 5 mps 724 mmHg 40%
    03:00 +32°C° 0 mm 5 mps 724 mmHg 42%
    04:00 +32°C° 0 mm 5 mps 724 mmHg 43%
    05:00 +30°C° 0 mm 5 mps 724 mmHg 44%
    06:00 +32°C° 0 mm 7 mps 725 mmHg 45%
    07:00 +32°C° 0 mm 8 mps 726 mmHg 46%
    08:00 +33°C° 0 mm 10 mps 726 mmHg 47%
    09:00 +34°C° 0 mm 10 mps 726 mmHg 43%
    10:00 +35°C° 0 mm 9 mps 726 mmHg 39%
    11:00 +38°C° 0 mm 9 mps 726 mmHg 34%
    12:00 +38°C° 0 mm 9 mps 725 mmHg 33%
    13:00 +39°C° 0 mm 9 mps 724 mmHg 31%
    14:00 +39°C° 0 mm 9 mps 723 mmHg 30%
    15:00 +39°C° 0 mm 9 mps 723 mmHg 31%
    16:00 +38°C° 0 mm 9 mps 723 mmHg 32%
    17:00 +37°C° 0 mm 9 mps 723 mmHg 33%
    18:00 +37°C° 0 mm 9 mps 723 mmHg 35%
    19:00 +35°C° 0 mm 9 mps 724 mmHg 36%
    20:00 +34°C° 0 mm 9 mps 725 mmHg 38%
    21:00 +34°C° 0 mm 8 mps 725 mmHg 39%
    22:00 +33°C° 0 mm 8 mps 725 mmHg 40%
    23:00 +33°C° 0 mm 7 mps 725 mmHg 42%

    Day after tomorrow, 18 December, Monday

    Time Temperature Precipitation Wind Pressure Humidity
    00:00 +32°C° 0 mm 7 mps 725 mmHg 43%
    01:00 +32°C° 0 mm 6 mps 724 mmHg 44%
    02:00 +30°C° 0 mm 5 mps 724 mmHg 45%
    03:00 +30°C° 0 mm 5 mps 724 mmHg 47%
    04:00 +29°C° 0 mm 4 mps 725 mmHg 48%
    05:00 +29°C° 0 mm 4 mps 725 mmHg 49%
    06:00 +30°C° 0 mm 5 mps 726 mmHg 47%
    07:00 +32°C° 0 mm 6 mps 726 mmHg 45%
    08:00 +33°C° 0 mm 8 mps 727 mmHg 43%
    09:00 +34°C° 0 mm 8 mps 727 mmHg 38%
    10:00 +37°C° 0 mm 8 mps 726 mmHg 33%
    11:00 +38°C° 0 mm 8 mps 726 mmHg 29%
    12:00 +39°C° 0 mm 8 mps 725 mmHg 27%
    13:00 +40°C° 0 mm 8 mps 724 mmHg 25%
    14:00 +40°C° 0 mm 7 mps 723 mmHg 23%
    15:00 +40°C° 0 mm 8 mps 723 mmHg 24%
    16:00 +39°C° 0 mm 8 mps 723 mmHg 25%
    17:00 +38°C° 0 mm 8 mps 722 mmHg 26%
    18:00 +38°C° 0 mm 8 mps 723 mmHg 28%
    19:00 +37°C° 0 mm 9 mps 724 mmHg 30%
    20:00 +35°C° 0 mm 9 mps 724 mmHg 32%
    21:00 +35°C° 0 mm 8 mps 724 mmHg 33%
    22:00 +34°C° 0 mm 8 mps 724 mmHg 33%
    23:00 +34°C° 0 mm 8 mps 724 mmHg 34%

    19 December, Tuesday

    Time Temperature Precipitation Wind Pressure Humidity
    00:00 +33°C° 0 mm 7 mps 724 mmHg 34%
    01:00 +33°C° 0 mm 7 mps 724 mmHg 35%
    02:00 +32°C° 0 mm 6 mps 723 mmHg 35%
    03:00 +32°C° 0 mm 6 mps 724 mmHg 35%
    04:00 +30°C° 0 mm 5 mps 724 mmHg 36%
    05:00 +30°C° 0 mm 5 mps 725 mmHg 36%
    06:00 +32°C° 0 mm 6 mps 725 mmHg 35%
    07:00 +33°C° 0 mm 7 mps 726 mmHg 34%
    08:00 +34°C° 0 mm 9 mps 727 mmHg 33%
    09:00 +35°C° 0 mm 9 mps 727 mmHg 31%
    10:00 +37°C° 0 mm 9 mps 726 mmHg 28%
    11:00 +38°C° 0 mm 9 mps 726 mmHg 26%
    12:00 +39°C° 0 mm 9 mps 725 mmHg 23%
    13:00 +39°C° 0 mm 8 mps 724 mmHg 21%
    14:00 +40°C° 0 mm 8 mps 723 mmHg 18%
    15:00 +39°C° 0 mm 8 mps 723 mmHg 18%
    16:00 +39°C° 0 mm 8 mps 723 mmHg 18%
    17:00 +39°C° 0 mm 8 mps 723 mmHg 18%
    18:00 +38°C° 0 mm 8 mps 724 mmHg 20%
    19:00 +37°C° 0 mm 8 mps 724 mmHg 23%
    20:00 +35°C° 0 mm 8 mps 725 mmHg 25%
    21:00 +35°C° 0 mm 8 mps 725 mmHg 26%
    22:00 +34°C° 0 mm 8 mps 725 mmHg 28%
    23:00 +33°C° 0 mm 8 mps 725 mmHg 29%

    20 December, Wednesday

    Time Temperature Precipitation Wind Pressure Humidity
    00:00 +33°C° 0 mm 7 mps 725 mmHg 30%
    01:00 +32°C° 0 mm 6 mps 724 mmHg 31%
    02:00 +32°C° 0 mm 6 mps 724 mmHg 32%
    03:00 +30°C° 0 mm 5 mps 725 mmHg 33%
    04:00 +29°C° 0 mm 4 mps 725 mmHg 34%
    05:00 +29°C° 0 mm 4 mps 725 mmHg 35%
    06:00 +30°C° 0 mm 6 mps 726 mmHg 31%
    07:00 +33°C° 0 mm 8 mps 727 mmHg 28%
    08:00 +34°C° 0 mm 10 mps 727 mmHg 25%
    09:00 +36°C° 0 mm 10 mps 727 mmHg 23%
    10:00 +37°C° 0 mm 10 mps 727 mmHg 21%
    11:00 +38°C° 0 mm 10 mps 726 mmHg 20%
    12:00 +39°C° 0 mm 9 mps 725 mmHg 19%
    13:00 +39°C° 0 mm 9 mps 725 mmHg 18%
    14:00 +40°C° 0 mm 8 mps 724 mmHg 16%
    15:00 +40°C° 0 mm 8 mps 724 mmHg 17%
    16:00 +39°C° 0 mm 8 mps 724 mmHg 17%
    17:00 +39°C° 0 mm 8 mps 724 mmHg 18%
    18:00 +38°C° 0 mm 8 mps 724 mmHg 20%
    19:00 +37°C° 0 mm 8 mps 725 mmHg 23%
    20:00 +35°C° 0 mm 8 mps 725 mmHg 26%
    21:00 +34°C° 0 mm 8 mps 725 mmHg 27%
    22:00 +34°C° 0 mm 8 mps 725 mmHg 29%
    23:00 +33°C° 0 mm 8 mps 725 mmHg 30%

    21 December, Thursday

    Time Temperature Precipitation Wind Pressure Humidity
    00:00 +32°C° 0 mm 7 mps 725 mmHg 31%
    01:00 +32°C° 0 mm 6 mps 725 mmHg 31%
    02:00 +30°C° 0 mm 5 mps 725 mmHg 32%
    03:00 +30°C° 0 mm 4 mps 725 mmHg 33%
    04:00 +29°C° 0 mm 4 mps 726 mmHg 34%
    05:00 +28°C° 0 mm 3 mps 726 mmHg 35%
    06:00 +30°C° 0 mm 5 mps 727 mmHg 32%
    07:00 +32°C° 0 mm 8 mps 727 mmHg 28%
    08:00 +34°C° 0 mm 10 mps 728 mmHg 24%
    09:00 +36°C° 0 mm 10 mps 728 mmHg 23%
    10:00 +37°C° 0 mm 10 mps 727 mmHg 22%
    11:00 +38°C° 0 mm 10 mps 727 mmHg 21%
    12:00 +38°C° 0 mm 10 mps 726 mmHg 20%
    13:00 +39°C° 0 mm 9 mps 725 mmHg 19%
    14:00 +40°C° 0 mm 9 mps 724 mmHg 18%
    15:00 +39°C° 0 mm 9 mps 724 mmHg 19%
    16:00 +39°C° 0 mm 9 mps 724 mmHg 20%
    17:00 +39°C° 0 mm 9 mps 724 mmHg 20%
    18:00 +38°C° 0 mm 8 mps 724 mmHg 22%
    19:00 +37°C° 0 mm 8 mps 725 mmHg 24%
    20:00 +35°C° 0 mm 8 mps 725 mmHg 25%
    21:00 +35°C° 0 mm 8 mps 725 mmHg 27%
    22:00 +34°C° 0 mm 7 mps 725 mmHg 28%
    23:00 +33°C° 0 mm 7 mps 725 mmHg 30%
    Show more